Regional Weather Roundup
Issued by NWS

Home | Current Version | Previous Version | Text Only | Print | Product List | Glossary On
Versions: 1 2 3 4 5 6 7 8 9 10 11 12 13 14 15 16 17 18 19 20 21 22 23 24 25 26 27 28 29 30 31 32 33 34 35 36 37 38 39 40 41 42 43 44 45 46 47 48 49 50
000
ASUS44 KJAN 101110
RWRMS

MISSISSIPPI HOURLY WEATHER ROUNDUP
NATIONAL WEATHER SERVICE JACKSON MS
500 AM CST WED FEB 10 2016

NOTE: "FAIR: INDICATES FEW OR NO CLOUDS BELOW 12,000 FEET WITH NO
SIGNIFICANT WEATHER AND/OR OBSTRUCTIONS TO VISIBILITY.

MSZ001>002-007>008-010>013-018>021-025>028-034>036-101200-
NORTHWEST MISSISSIPPI

CITY           SKY/WX    TMP DP  RH WIND       PRES   REMARKS
CLEVELAND      FAIR      28  19  67 NW6       30.28R WCI  22
GREENWOOD      CLEAR     21  17  84 CALM      30.27R
GREENVILLE     CLEAR     28  18  66 W6        30.28R WCI  22
OLIVE BRANCH   CLEAR     23  12  63 N7        30.22R WCI  15
OXFORD         FAIR      23  12  63 NW5       30.25R WCI  17
TUNICA         SUNNY     27  10  50 NW5       30.28R WCI  21
$$

MSZ003>006-009-014>017-022>024-029>033-037>039-101200-
NORTHEAST MISSISSIPPI

CITY           SKY/WX    TMP DP  RH WIND       PRES   REMARKS
COLUMBUS AFB   CLEAR     24  16  71 W8        30.22R WCI  15
GOLDN TRIANGLE CLEAR     27  12  54 NW7       30.21R WCI  19
STARKVILLE     FAIR      27  14  59 CALM      30.23R
TUPELO         CLEAR     23  13  65 W5        30.22R WCI  17
$$

MSZ040-058-101200-
CENTRAL MISSISSIPPI

CITY           SKY/WX    TMP DP  RH WIND       PRES   REMARKS
JACKSON INTL   CLEAR     25  18  74 CALM      30.26R
JACKSON HAWKNS PTCLDY    27  19  72 CALM      30.28R
MERIDIAN KEY   PTCLDY    25  17  72 CALM      30.26R
MERIDIAN NAS   PTCLDY    24  15  68 W5        30.25R WCI  18
VICKSBURG      CLEAR     30  25  81 W3        30.30R
$$

MSZ059>079-101200-
SOUTH MISSISSIPPI

CITY           SKY/WX    TMP DP  RH WIND       PRES   REMARKS
BROOKHAVEN     FAIR      30  23  74 MISG      30.29R
HATTIESBURG    CLEAR     27  22  81 CALM      30.28R
MCCOMB         CLEAR     29  22  75 CALM      30.28R
NATCHEZ        CLEAR     28  19  69 CALM      30.29S
PINE BELT      CLEAR     25  18  74 CALM      30.27R
$$

MSZ080>082-101200-
COASTAL MISSISSIPPI

CITY           SKY/WX    TMP DP  RH WIND       PRES   REMARKS
BILOXI         MOCLDY    35  23  61 NE7       30.27R WCI  29
PASCAGOULA     PTCLDY    31  22  69 N3        30.28R
GULFPORT       PTCLDY    34  21  59 N5        30.27R WCI  30
$$



USA.gov is the U.S. government's official web portal to all federal, state and local government web resources and services.